SCP
2 3 4 5 5 5 4 4 3 3 2 2 1 0 0 0 1 1 1 1 1 1 1 1 1 1 1 2 2 2 2 3 3 3 3 3 2 1 1 1 0 0 0
1 1 2 3 4 4 4 3 3 3 3 2 1 1 0 0 1 1 1 1 1 1 1 1 1 1 1 1 2 2 2 3 3 3 3 3 2 1 1 1 0 0 0
0 0 1 1 2 2 2 3 3 3 3 3 2 1 1 1 0 0 0 0 0 0 0 0 1 1 1 1 1 1 2 2 2 2 2 2 1 1 0 0 0 0 0
0 0 0 0 0 1 1 2 2 2 2 3 3 2 1 1 1 0 0 0 0 0 0 0 0 0 0 0 1 1 1 1 2 2 1 1 1 0 0 0 0 0 0
0 0 0 0 0 0 0 1 1 2 2 3 3 2 2 1 1 0 0 0 0 0 0 0 0 0 0 0 0 0 0 0 1 1 1 0 0 0 0 0 0 0 0
0 0 0 0 0 0 0 1 1 2 2 3 3 3 2 1 0 0 0 0 0 0 0 0 0 0 0 0 0 0 0 0 0 0 0 0 0 0 0 0 0 0 0
0 0 0 0 0 0 0 0 1 2 2 2 2 2 2 1 0 0 0 0 0 0 0 0 0 0 0 0 0 0 0 0 0 0 0 0 0 0 0 0 0 0 0
0 0 0 0 0 0 0 0 1 2 2 2 2 2 2 1 0 0 0 0 0 0 0 0 0 0 0 0 0 0 0 0 0 0 0 0 0 0 0 0 0 0 0
0 0 0 0 0 0 0 0 1 1 1 1 1 1 1 1 0 0 0 0 0 0 0 0 0 0 0 0 0 0 0 0 0 0 0 0 0 0 0 0 0 0 0
0 0 0 0 0 0 0 0 0 1 1 1 1 1 1 1 0 0 0 0 0 0 0 0 0 0 0 0 0 0 0 0 0 0 0 0 0 0 0 0 0 0 0
0 0 0 0 0 0 0 0 0 0 1 1 1 1 1 1 0 0 0 0 0 0 0 0 0 0 0 0 0 0 0 0 0 0 0 0 0 0 0 0 0 0 0
0 0 0 0 0 0 0 0 0 0 0 1 1 1 1 0 0 0 0 0 0 0 0 0 0 0 0 0 0 0 0 0 0 0 0 0 0 0 0 0 0 0 0
0 0 0 0 0 0 0 0 0 0 0 1 1 1 1 0 0 0 0 0 0 0 0 0 0 0 0 0 0 0 0 0 0 0 0 0 0 0 0 0 0 0 0
0 0 0 0 0 0 0 0 0 0 0 0 1 1 1 0 0 0 0 0 0 0 0 0 0 0 0 0 0 0 0 0 0 0 0 0 0 0 0 0 0 0 0
0 0 0 0 0 0 0 0 0 0 0 0 0 0 0 0 0 0 0 0 0 0 0 0 0 0 0 0 0 0 0 0 0 0 0 0 0 0 0 0 0 0 0
0 0 0 0 0 0 0 0 0 0 0 0 0 0 0 0 0 0 0 0 0 0 0 0 0 0 0 0 0 0 0 0 0 0 0 0 0 0 0 0 0 0 0
1 0 0 0 0 0 0 0 0 0 0 0 0 0 0 0 0 0 0 0 0 0 0 0 0 0 0 0 0 0 0 0 0 0 0 0 0 0 0 0 -0 0 0
0 0 0 0 0 0 0 0 0 0 0 0 0 0 0 0 0 0 0 0 0 0 0 0 0 0 0 0 0 0 0 0 0 0 0 0 0 0 0 0 0 0 0
0 0 0 0 0 0 0 0 0 0 0 0 0 0 0 0 0 0 0 0 0 0 0 0 0 0 0 0 0 0 0 0 0 0 0 0 0 0 0 0 0 0 0
0 0 0 0 0 0 0 0 0 0 0 0 0 0 0 0 0 0 0 0 0 0 0 0 0 0 0 0 0 0 0 0 0 0 0 0 0 0 0 0 0 0 0
0 0 0 0 0 0 0 0 0 0 0 0 0 0 0 0 0 0 0 0 0 0 0 0 0 0 0 0 0 0 0 0 0 0 0 0 0 0 0 0 0 0 0
0 0 0 0 0 0 0 0 0 0 0 0 0 0 0 0 0 0 0 0 0 0 0 0 0 0 0 0 0 0 0 0 0 0 0 0 0 0 0 0 0 0 0
0 0 0 0 0 0 0 0 0 0 0 0 0 0 0 0 0 0 0 0 0 0 0 0 0 0 0 0 0 0 0 0 0 0 0 0 0 0 0 0 0 0 0
0 0 0 0 0 0 0 0 0 0 0 0 0 0 0 0 0 0 0 0 0 0 0 0 0 0 0 0 0 0 0 0 0 0 0 0 0 0 0 0 0 0 0
0 0 0 0 0 0 0 0 0 0 0 0 0 0 0 0 0 0 0 0 0 0 0 0 0 0 0 0 0 0 0 0 0 0 0 0 0 0 0 0 0 0 0
0 0 0 0 0 0 0 0 0 0 0 0 0 0 0 0 0 0 0 0 0 0 0 0 0 0 0 0 0 0 0 0 0 0 0 0 0 0 0 0 0 0 0
Wind_Speed
15 13 12 10 9 9 9 10 9 9 9 9 9 9 10 11 10 10 10 9 8 7 7 7 7 8 7 8 9 9 9 8 6 4 5 8 9 8 7 7 8 9 10
14 14 13 12 11 10 10 11 11 11 11 11 10 9 9 9 9 10 8 6 6 5 5 4 5 4 5 5 6 8 8 8 7 9 8 8 8 7 7 8 9 10 11
15 15 15 14 13 12 12 12 13 13 13 12 11 10 9 8 8 8 7 6 5 5 4 4 5 6 4 3 2 1 2 5 7 9 9 7 7 8 9 10 11 10 12
14 15 14 15 15 14 14 13 13 14 15 14 12 10 9 9 9 7 6 5 4 4 5 5 5 5 4 4 4 5 6 7 7 8 8 7 7 9 9 10 10 9 9
10 11 12 13 14 15 15 14 14 13 15 15 13 11 10 9 8 7 6 5 3 3 3 3 4 5 6 5 6 8 9 8 7 6 6 6 7 8 8 9 10 9 8
12 13 11 12 14 13 14 14 14 13 13 14 15 13 12 9 6 3 7 5 2 0 2 2 4 7 11 12 12 11 10 9 8 5 5 7 7 7 7 8 9 9 8
13 14 13 13 14 14 14 14 13 12 12 13 14 14 13 10 11 8 6 6 4 1 2 2 5 8 10 12 13 13 12 9 5 5 9 8 8 7 6 7 5 6 7
16 16 15 15 15 15 14 13 12 11 10 10 12 14 13 12 14 11 7 8 5 3 3 4 6 8 8 9 11 12 11 9 8 9 9 9 9 7 6 7 9 9 7
18 18 17 17 17 16 15 14 12 11 11 10 10 12 13 12 15 13 11 9 7 6 5 5 7 9 6 7 10 11 12 10 13 16 14 13 12 9 5 4 7 7 7
20 19 19 17 17 17 16 14 13 12 12 11 8 8 11 11 15 15 13 9 8 8 7 6 6 8 5 2 8 10 11 10 11 11 10 9 9 7 3 0 4 5 7
20 20 20 18 17 17 15 14 13 13 13 11 9 6 5 7 12 16 15 9 9 9 9 8 7 9 6 2 5 9 10 10 10 10 8 8 7 6 6 6 7 4 3
18 19 20 20 18 16 15 13 13 13 13 12 9 6 1 3 5 12 15 12 6 7 8 8 9 11 9 7 7 10 9 8 8 7 7 6 7 7 8 9 10 10 9
17 18 19 20 18 16 15 14 13 12 12 10 7 5 3 1 3 6 13 11 5 4 7 13 14 15 13 10 11 9 7 6 6 6 6 7 7 8 8 7 8 8 7
19 17 16 16 16 15 12 12 12 11 10 8 6 5 5 4 3 5 10 9 8 9 11 14 14 10 9 11 9 6 5 5 5 6 7 7 7 7 6 6 7 7 8
18 17 15 14 14 13 12 10 10 9 6 5 5 5 6 7 8 9 9 11 11 10 13 11 11 11 10 10 8 6 6 6 6 7 7 7 7 6 5 5 3 5 6
16 14 12 10 10 10 10 10 11 10 5 6 7 6 6 7 11 10 10 12 15 17 13 12 11 11 11 10 9 8 8 8 7 7 7 7 7 7 6 6 5 5 5
15 13 10 9 9 9 10 11 9 8 7 7 8 8 7 9 12 13 10 10 16 18 12 11 11 11 10 10 9 8 8 8 7 7 7 7 7 7 6 6 5 5 4
13 12 10 8 9 10 11 12 10 9 9 8 7 8 9 11 13 14 13 10 9 11 11 11 11 11 10 10 9 9 9 9 8 7 8 7 7 6 6 6 6 5 5
9 6 6 7 8 9 11 11 10 10 8 7 6 8 9 9 11 15 15 9 12 13 11 10 11 11 10 10 9 9 9 9 9 8 8 7 7 7 6 6 6 4 2
4 8 8 7 8 9 11 11 9 8 7 6 5 5 7 8 8 10 11 12 12 13 11 10 10 11 10 10 9 9 9 10 10 8 9 8 6 6 6 6 7 7 5
4 5 9 8 8 10 10 8 7 6 5 4 4 5 9 10 12 15 15 14 13 13 11 9 11 11 11 10 10 11 12 10 10 9 8 8 7 6 5 6 5 5 5
2 2 3 5 6 6 5 5 5 4 4 3 4 5 12 12 14 16 16 15 13 11 11 11 10 11 11 12 11 11 11 11 10 9 8 8 7 6 6 6 5 5 5
2 3 3 3 4 4 4 4 4 3 3 4 6 7 11 14 16 16 16 15 13 12 11 11 11 11 11 11 11 11 11 11 11 10 9 8 8 7 6 6 6 6 6
2 3 3 4 4 4 4 4 4 5 6 6 7 10 13 14 15 17 16 13 13 12 11 11 11 13 15 12 10 11 11 10 11 11 12 10 9 8 7 7 7 8 8
2 3 3 3 3 4 5 5 6 5 5 7 11 12 14 14 15 15 14 13 13 12 13 12 10 11 15 16 13 11 9 7 4 7 11 10 11 10 9 9 8 9 9
2 2 3 3 3 4 4 3 2 2 4 8 11 12 12 13 13 13 12 12 10 8 9 9 10 11 13 13 13 9 9 10 7 4 7 10 11 11 11 10 11 11 11
Wind_Direction
354 349 342 323 295 268 253 250 247 248 246 248 260 275 285 290 292 288 289 297 293 296 297 285 277 273 267 257 246 236 224 216 203 131 122 124 123 126 129 126 117 96 82
339 336 337 333 324 310 292 277 262 252 247 244 250 264 275 280 284 285 292 301 300 306 314 322 325 312 300 284 261 239 225 208 175 146 135 133 131 128 131 127 113 100 94
332 327 326 325 326 325 319 303 280 262 251 246 243 252 260 266 272 277 288 293 292 298 308 322 334 341 354 8 4 166 170 155 145 139 135 137 139 142 136 117 109 112 107
322 319 318 319 320 320 320 314 297 275 257 245 239 240 242 247 255 261 273 282 292 307 315 319 329 345 19 68 74 89 95 101 112 123 127 137 145 156 144 132 123 117 114
288 293 299 304 308 311 312 310 305 290 269 252 239 230 226 231 237 240 251 253 276 313 330 337 17 40 56 87 102 102 101 99 99 107 127 144 152 164 147 130 119 119 115
261 269 272 280 287 291 294 296 299 298 284 262 243 229 219 219 164 205 265 237 240 309 38 53 105 107 95 89 95 99 110 121 133 145 151 138 139 133 122 131 139 134 122
271 275 272 270 276 279 284 292 299 302 298 276 252 235 222 202 166 196 238 248 222 148 87 64 87 104 122 116 106 100 87 79 105 119 115 115 114 111 130 135 120 114 104
280 280 277 275 278 279 280 285 292 297 298 290 268 246 227 197 176 191 209 231 220 183 144 119 110 117 115 123 123 109 92 68 72 91 93 90 86 79 78 96 110 113 115
280 280 278 276 277 275 274 277 283 289 291 287 282 263 236 199 177 184 202 214 204 190 166 143 132 118 107 122 124 117 105 91 73 76 79 82 71 56 34 141 157 164 140
289 289 283 277 274 271 269 272 275 279 281 279 275 270 252 217 180 182 201 213 189 177 157 135 99 116 124 151 143 132 122 117 114 107 102 107 99 91 54 17 193 183 148
291 291 286 279 273 266 263 262 265 268 274 278 272 263 263 250 183 183 199 220 187 185 170 161 126 120 119 109 156 140 133 132 127 125 120 116 111 106 100 71 33 33 111
290 289 285 279 272 267 263 257 255 260 264 266 264 248 228 287 232 193 196 224 242 188 170 144 123 125 114 107 112 118 134 151 142 139 135 129 120 105 88 76 64 59 55
280 282 281 276 269 265 264 260 251 245 251 258 255 236 186 170 271 213 194 204 227 183 125 110 124 127 120 109 116 134 164 161 147 145 135 124 108 102 106 104 96 95 96
276 273 271 271 267 260 254 251 249 247 249 254 253 231 189 159 214 223 190 177 150 129 118 119 128 134 120 117 142 172 184 153 153 136 125 120 123 141 148 143 149 154 136
274 270 262 256 260 261 254 249 255 255 259 264 258 222 192 185 193 212 192 172 166 148 143 148 151 150 150 157 164 164 152 148 149 134 135 143 149 148 136 126 139 141 134
270 264 259 250 243 248 252 246 225 231 183 198 229 224 206 188 168 179 191 165 151 151 159 160 161 161 160 159 157 156 158 156 150 147 150 153 151 148 144 150 157 138 127
270 259 248 241 234 239 249 247 232 193 184 194 201 198 195 169 155 158 164 151 150 160 176 166 166 165 162 160 159 158 156 149 152 154 150 148 148 151 155 156 152 145 137
275 255 241 231 232 236 239 235 225 206 189 191 183 187 185 172 155 147 139 133 154 186 193 171 169 166 165 164 162 157 149 152 164 158 151 151 155 156 156 162 159 153 144
278 244 230 229 228 231 232 226 215 202 190 183 167 167 181 167 147 146 150 170 180 199 206 176 172 169 168 166 160 156 154 161 166 163 156 161 163 161 159 157 129 104 190
268 238 231 229 225 224 221 213 199 184 180 181 177 165 155 163 164 161 179 189 193 199 206 181 175 172 170 168 165 164 162 161 166 176 162 169 172 165 153 157 151 166 175
272 253 229 218 216 214 207 194 174 172 182 186 188 179 172 187 186 178 184 189 195 195 202 187 176 176 175 173 174 175 174 170 175 180 169 173 175 172 167 163 163 171 160
238 249 205 199 204 201 188 166 157 162 170 191 207 196 190 201 191 180 184 186 192 199 197 188 181 180 182 181 180 182 185 181 181 185 181 179 179 183 181 177 175 174 175
219 202 198 207 210 177 186 170 159 172 199 215 222 207 190 195 182 177 179 182 190 199 189 183 185 182 182 181 183 188 193 188 185 188 194 191 191 195 196 191 193 198 204
187 195 193 203 205 192 187 184 198 212 216 216 193 175 178 182 173 170 173 179 191 192 182 183 188 183 179 181 185 192 199 196 191 191 200 207 204 204 204 205 214 220 226
185 181 183 188 190 188 196 206 207 204 201 172 160 165 171 171 167 166 171 176 184 184 181 182 185 181 181 189 194 199 175 163 196 208 192 211 219 217 218 220 226 234 240
165 159 167 173 184 195 201 187 155 153 156 156 157 160 161 163 162 164 165 163 168 176 181 184 191 188 185 194 202 188 148 157 178 232 235 213 218 223 224 232 238 242 249